QPF
0.15 0.11 0.09 0.05 0.02 0.01 0.02 0.04 0.11 0.23 0.24 0.22 0.16 0.10 0.06 0.05 0.04 0.04 0.04 0.04 0.04 0.03 0.03 0.02 0.01 0.01 0.01 0.01 0.01 0.01 0.01 0.01 0.01 0.01 0.01 0.01 0.01 0.01 0.01 0.00 0.00 0.00 0.00 0.00
0.09 0.06 0.06 0.03 0.02 0.01 0.02 0.05 0.11 0.19 0.22 0.23 0.17 0.12 0.08 0.08 0.09 0.09 0.09 0.08 0.07 0.06 0.04 0.03 0.02 0.01 0.01 0.01 0.01 0.01 0.01 0.01 0.01 0.01 0.01 0.01 0.01 0.01 0.01 0.00 0.00 0.00 0.00 0.00
0.08 0.04 0.06 0.07 0.02 0.01 0.02 0.03 0.08 0.10 0.09 0.13 0.12 0.11 0.11 0.11 0.09 0.10 0.11 0.10 0.09 0.08 0.07 0.05 0.03 0.02 0.01 0.01 0.01 0.01 0.01 0.01 0.01 0.01 0.01 0.00 0.00 0.01 0.01 0.01 0.01 0.01 0.01 0.01
0.05 0.07 0.13 0.08 0.02 0.01 0.02 0.03 0.03 0.03 0.03 0.06 0.09 0.13 0.17 0.18 0.16 0.16 0.15 0.14 0.13 0.10 0.07 0.05 0.03 0.02 0.01 0.01 0.02 0.02 0.01 0.01 0.00 0.00 0.00 0.00 0.01 0.01 0.02 0.02 0.02 0.02 0.01 0.01
0.04 0.09 0.11 0.05 0.02 0.01 0.03 0.04 0.03 0.02 0.02 0.04 0.07 0.10 0.17 0.18 0.18 0.17 0.17 0.16 0.14 0.12 0.10 0.08 0.05 0.04 0.02 0.02 0.02 0.01 0.01 0.01 0.00 0.00 0.00 0.01 0.01 0.02 0.02 0.02 0.02 0.01 0.01 0.02
0.04 0.07 0.11 0.09 0.03 0.01 0.03 0.08 0.06 0.03 0.03 0.06 0.09 0.11 0.13 0.13 0.12 0.12 0.12 0.11 0.09 0.08 0.07 0.05 0.04 0.04 0.03 0.02 0.02 0.01 0.01 0.01 0.01 0.01 0.01 0.01 0.02 0.02 0.02 0.02 0.02 0.01 0.01 0.02
0.03 0.06 0.08 0.04 0.03 0.04 0.10 0.12 0.06 0.04 0.05 0.09 0.12 0.10 0.07 0.07 0.07 0.06 0.06 0.05 0.04 0.04 0.05 0.04 0.03 0.03 0.03 0.03 0.02 0.01 0.01 0.01 0.01 0.01 0.01 0.01 0.02 0.02 0.02 0.02 0.02 0.02 0.02 0.03
0.03 0.06 0.06 0.02 0.04 0.07 0.08 0.05 0.04 0.05 0.06 0.06 0.05 0.04 0.03 0.03 0.03 0.04 0.03 0.03 0.03 0.04 0.04 0.04 0.03 0.03 0.03 0.03 0.02 0.01 0.01 0.01 0.01 0.01 0.00 0.01 0.02 0.03 0.02 0.02 0.02 0.03 0.03 0.04
0.02 0.04 0.02 0.01 0.02 0.02 0.02 0.02 0.03 0.03 0.03 0.02 0.02 0.02 0.03 0.03 0.03 0.03 0.03 0.04 0.04 0.03 0.04 0.04 0.04 0.04 0.05 0.03 0.01 0.01 0.02 0.02 0.02 0.01 0.00 0.00 0.01 0.03 0.02 0.02 0.01 0.01 0.01 0.03
0.00 0.01 0.01 0.01 0.01 0.02 0.03 0.03 0.02 0.01 0.01 0.01 0.01 0.01 0.02 0.02 0.04 0.05 0.05 0.04 0.04 0.04 0.04 0.04 0.03 0.04 0.04 0.02 0.01 0.02 0.02 0.02 0.01 0.01 0.01 0.01 0.01 0.00 0.00 0.00 0.00 0.01 0.02 0.03
0.00 0.00 0.01 0.01 0.01 0.01 0.02 0.01 0.01 0.00 0.00 0.01 0.01 0.01 0.01 0.02 0.03 0.04 0.04 0.04 0.04 0.05 0.05 0.04 0.03 0.03 0.02 0.01 0.01 0.02 0.02 0.01 0.01 0.01 0.01 0.01 0.01 0.00 0.00 0.00 0.00 0.00 0.00 0.01
0.00 0.00 0.00 0.01 0.01 0.00 0.00 0.00 0.00 0.00 0.00 0.01 0.01 0.01 0.01 0.02 0.02 0.03 0.03 0.05 0.06 0.05 0.04 0.03 0.03 0.03 0.01 0.00 0.00 0.01 0.02 0.01 0.01 0.01 0.01 0.01 0.01 0.01 0.00 0.00 0.00 0.00 0.00 0.00
0.00 0.00 0.00 0.00 0.00 0.00 0.00 0.00 0.00 0.00 0.00 0.01 0.01 0.01 0.01 0.02 0.02 0.02 0.03 0.04 0.04 0.03 0.02 0.02 0.01 0.01 0.01 0.00 0.00 0.00 0.01 0.01 0.00 0.00 0.00 0.00 0.01 0.03 0.03 0.01 0.00 0.00 0.00 0.00
0.00 0.00 0.00 0.00 0.00 0.00 0.00 0.00 0.00 0.00 0.01 0.01 0.01 0.01 0.01 0.02 0.02 0.02 0.02 0.02 0.01 0.01 0.01 0.00 0.00 0.00 0.00 0.00 0.00 0.00 0.00 0.00 0.00 0.00 0.00 0.00 0.00 0.01 0.02 0.03 0.03 0.02 0.01 0.00
0.00 0.00 0.00 0.00 0.00 0.00 0.00 0.00 0.00 0.01 0.01 0.01 0.00 0.00 0.01 0.02 0.02 0.01 0.01 0.00 0.00 0.00 0.00 0.00 0.00 0.00 0.00 0.00 0.00 0.00 0.00 0.00 0.00 0.00 0.00 0.00 0.00 0.00 0.00 0.02 0.03 0.04 0.04 0.02
0.00 0.00 0.00 0.00 0.00 0.00 0.00 0.00 0.01 0.00 0.00 0.00 0.00 0.00 0.01 0.01 0.01 0.00 0.00 0.00 0.00 0.00 0.00 0.00 0.00 0.00 0.00 0.00 0.00 0.00 0.00 0.00 0.00 0.00 0.00 0.00 0.00 0.00 0.00 0.01 0.02 0.03 0.02 0.02
0.00 0.00 0.00 0.00 0.00 0.00 0.00 0.00 0.00 0.00 0.00 0.00 0.00 0.00 0.00 0.00 0.00 0.00 0.00 0.00 0.00 0.00 0.00 0.00 0.00 0.00 0.00 0.00 0.00 0.00 0.00 0.00 0.00 0.00 0.00 0.00 0.00 0.00 0.01 0.01 0.02 0.02 0.01 0.00
0.00 0.00 0.00 0.00 0.00 0.00 0.00 0.00 0.00 0.00 0.00 0.00 0.00 0.00 0.00 0.00 0.00 0.00 0.00 0.00 0.00 0.00 0.00 0.00 0.00 0.00 0.00 0.00 0.00 0.00 0.00 0.00 0.00 0.00 0.00 0.00 0.00 0.00 0.00 0.00 0.02 0.02 0.01 0.01
0.00 0.00 0.00 0.00 0.00 0.00 0.00 0.00 0.00 0.00 0.00 0.00 0.00 0.00 0.00 0.00 0.00 0.00 0.00 0.00 0.00 0.00 0.00 0.00 0.00 0.00 0.00 0.00 0.00 0.00 0.00 0.00 0.00 0.00 0.00 0.00 0.00 0.00 0.00 0.00 0.01 0.01 0.01 0.01
0.00 0.00 0.00 0.00 0.00 0.00 0.00 0.00 0.00 0.00 0.00 0.00 0.00 0.00 0.00 0.00 0.00 0.00 0.00 0.00 0.00 0.00 0.00 0.00 0.00 0.00 0.00 0.00 0.00 0.00 0.00 0.00 0.00 0.00 0.00 0.00 0.00 0.00 0.00 0.00 0.00 0.01 0.01 0.01
0.00 0.00 0.00 0.00 0.00 0.00 0.00 0.00 0.00 0.00 0.00 0.00 0.00 0.00 0.00 0.00 0.00 0.00 0.00 0.00 0.00 0.00 0.00 0.00 0.00 0.00 0.00 0.00 0.00 0.00 0.00 0.00 0.00 0.00 0.00 0.00 0.00 0.00 0.00 0.00 0.00 0.00 0.00 0.01
0.00 0.00 0.00 0.00 0.00 0.00 0.00 0.00 0.00 0.00 0.00 0.00 0.00 0.00 0.00 0.00 0.00 0.00 0.00 0.00 0.00 0.00 0.00 0.00 0.00 0.00 0.00 0.00 0.00 0.00 0.00 0.00 0.00 0.00 0.00 0.00 0.00 0.00 0.00 0.00 0.00 0.00 0.00 0.00
0.00 0.00 0.00 0.00 0.00 0.00 0.00 0.00 0.00 0.00 0.00 0.00 0.00 0.00 0.00 0.00 0.00 0.00 0.00 0.00 0.00 0.00 0.00 0.00 0.00 0.00 0.00 0.00 0.00 0.00 0.00 0.00 0.00 0.00 0.00 0.00 0.00 0.00 0.00 0.00 0.00 0.00 0.00 0.00
0.00 0.00 0.00 0.00 0.00 0.00 0.00 0.00 0.00 0.00 0.00 0.00 0.00 0.00 0.00 0.00 0.00 0.00 0.00 0.00 0.00 0.00 0.00 0.00 0.00 0.00 0.00 0.00 0.00 0.00 0.00 0.00 0.00 0.00 0.00 0.00 0.00 0.00 0.00 0.00 0.00 0.00 0.00 0.00
0.00 0.00 0.00 0.00 0.00 0.00 0.00 0.00 0.00 0.00 0.00 0.00 0.00 0.00 0.00 0.00 0.00 0.00 0.00 0.00 0.00 0.00 0.00 0.00 0.00 0.00 0.00 0.00 0.00 0.00 0.00 0.00 0.00 0.00 0.00 0.00 0.00 0.00 0.00 0.00 0.00 0.00 0.00 0.00
0.00 0.00 0.00 0.00 0.00 0.00 0.00 0.00 0.00 0.00 0.00 0.00 0.00 0.00 0.00 0.00 0.00 0.00 0.00 0.00 0.00 0.00 0.00 0.00 0.00 0.00 0.00 0.00 0.00 0.00 0.00 0.00 0.00 0.00 0.00 0.00 0.00 0.00 0.00 0.00 0.00 0.00 0.00 0.00
0.00 0.00 0.00 0.00 0.00 0.00 0.00 0.00 0.00 0.00 0.00 0.00 0.00 0.00 0.00 0.00 0.00 0.00 0.00 0.00 0.00 0.00 0.00 0.00 0.00 0.00 0.00 0.00 0.00 0.00 0.00 0.00 0.00 0.00 0.00 0.00 0.00 0.00 0.00 0.00 0.00 0.00 0.00 0.00
MSLP
1010.62 1010.39 1009.99 1009.51 1009.07 1008.77 1008.69 1008.89 1009.36 1010.07 1010.98 1012.00 1013.07 1014.10 1015.07 1015.93 1016.70 1017.37 1017.97 1018.52 1019.03 1019.51 1019.95 1020.35 1020.70 1021.00 1021.24 1021.42 1021.57 1021.70 1021.84 1021.99 1022.16 1022.35 1022.57 1022.80 1023.03 1023.26 1023.47 1023.67 1023.85 1024.02 1024.18 1024.32
1010.71 1010.71 1010.53 1010.26 1009.98 1009.79 1009.79 1010.01 1010.49 1011.19 1012.09 1013.10 1014.15 1015.18 1016.14 1016.99 1017.72 1018.34 1018.86 1019.32 1019.72 1020.09 1020.43 1020.75 1021.03 1021.28 1021.49 1021.67 1021.82 1021.96 1022.10 1022.25 1022.41 1022.60 1022.81 1023.03 1023.25 1023.48 1023.71 1023.93 1024.14 1024.33 1024.52 1024.67
1010.63 1010.85 1010.89 1010.83 1010.73 1010.69 1010.78 1011.06 1011.57 1012.28 1013.17 1014.18 1015.23 1016.26 1017.21 1018.04 1018.74 1019.31 1019.77 1020.14 1020.44 1020.71 1020.96 1021.18 1021.40 1021.60 1021.79 1021.96 1022.12 1022.27 1022.41 1022.57 1022.73 1022.91 1023.10 1023.30 1023.51 1023.72 1023.93 1024.14 1024.35 1024.56 1024.75 1024.91
1010.43 1010.81 1011.04 1011.15 1011.22 1011.32 1011.53 1011.88 1012.43 1013.16 1014.06 1015.06 1016.12 1017.14 1018.09 1018.92 1019.60 1020.14 1020.56 1020.86 1021.09 1021.28 1021.45 1021.61 1021.77 1021.94 1022.11 1022.28 1022.45 1022.62 1022.79 1022.95 1023.11 1023.27 1023.44 1023.60 1023.77 1023.94 1024.11 1024.29 1024.48 1024.66 1024.85 1025.01
1010.17 1010.65 1011.01 1011.26 1011.46 1011.68 1011.97 1012.40 1012.99 1013.74 1014.65 1015.65 1016.70 1017.74 1018.69 1019.52 1020.21 1020.74 1021.13 1021.41 1021.59 1021.73 1021.85 1021.96 1022.09 1022.25 1022.42 1022.60 1022.80 1022.99 1023.18 1023.35 1023.51 1023.66 1023.79 1023.90 1024.02 1024.13 1024.25 1024.38 1024.53 1024.68 1024.85 1025.01
1009.93 1010.45 1010.87 1011.21 1011.51 1011.81 1012.18 1012.65 1013.27 1014.04 1014.94 1015.95 1017.00 1018.03 1018.99 1019.84 1020.53 1021.07 1021.46 1021.73 1021.90 1022.02 1022.11 1022.21 1022.33 1022.48 1022.66 1022.87 1023.10 1023.32 1023.53 1023.73 1023.89 1024.02 1024.12 1024.19 1024.25 1024.31 1024.37 1024.45 1024.56 1024.69 1024.84 1025.00
1009.76 1010.27 1010.73 1011.12 1011.47 1011.83 1012.24 1012.75 1013.38 1014.15 1015.05 1016.04 1017.08 1018.10 1019.06 1019.91 1020.62 1021.17 1021.58 1021.85 1022.02 1022.14 1022.23 1022.33 1022.45 1022.61 1022.82 1023.06 1023.32 1023.57 1023.82 1024.03 1024.20 1024.32 1024.40 1024.45 1024.47 1024.49 1024.51 1024.56 1024.64 1024.75 1024.90 1025.06
1009.68 1010.18 1010.64 1011.06 1011.45 1011.85 1012.29 1012.82 1013.46 1014.22 1015.10 1016.06 1017.08 1018.08 1019.02 1019.87 1020.58 1021.14 1021.55 1021.83 1022.02 1022.14 1022.24 1022.34 1022.48 1022.66 1022.89 1023.15 1023.44 1023.72 1023.99 1024.23 1024.41 1024.54 1024.62 1024.66 1024.67 1024.68 1024.69 1024.73 1024.81 1024.93 1025.08 1025.25
1009.71 1010.20 1010.67 1011.12 1011.54 1011.98 1012.45 1013.00 1013.64 1014.39 1015.24 1016.16 1017.13 1018.09 1019.00 1019.81 1020.50 1021.06 1021.47 1021.76 1021.95 1022.09 1022.20 1022.31 1022.46 1022.65 1022.89 1023.17 1023.47 1023.77 1024.06 1024.31 1024.52 1024.67 1024.76 1024.82 1024.85 1024.88 1024.91 1024.98 1025.09 1025.23 1025.40 1025.59
1009.81 1010.32 1010.82 1011.31 1011.78 1012.27 1012.78 1013.35 1014.00 1014.73 1015.54 1016.41 1017.32 1018.22 1019.07 1019.84 1020.49 1021.02 1021.42 1021.71 1021.90 1022.04 1022.16 1022.28 1022.43 1022.62 1022.86 1023.14 1023.44 1023.75 1024.04 1024.30 1024.52 1024.69 1024.82 1024.91 1024.98 1025.06 1025.15 1025.26 1025.41 1025.60 1025.80 1026.00
1009.95 1010.50 1011.06 1011.61 1012.16 1012.71 1013.27 1013.88 1014.53 1015.25 1016.02 1016.83 1017.67 1018.49 1019.27 1019.97 1020.58 1021.07 1021.45 1021.72 1021.91 1022.05 1022.17 1022.29 1022.44 1022.62 1022.85 1023.10 1023.39 1023.67 1023.95 1024.21 1024.43 1024.62 1024.78 1024.92 1025.05 1025.18 1025.33 1025.51 1025.72 1025.95 1026.18 1026.39
1010.09 1010.70 1011.34 1011.98 1012.61 1013.24 1013.88 1014.52 1015.19 1015.90 1016.63 1017.38 1018.14 1018.88 1019.58 1020.21 1020.75 1021.19 1021.54 1021.80 1021.98 1022.13 1022.25 1022.36 1022.50 1022.66 1022.86 1023.09 1023.33 1023.58 1023.83 1024.06 1024.28 1024.48 1024.66 1024.83 1025.01 1025.21 1025.42 1025.66 1025.92 1026.19 1026.43 1026.64
1010.18 1010.88 1011.61 1012.34 1013.07 1013.79 1014.49 1015.18 1015.88 1016.57 1017.27 1017.96 1018.64 1019.30 1019.91 1020.46 1020.94 1021.34 1021.66 1021.91 1022.10 1022.24 1022.36 1022.48 1022.61 1022.75 1022.91 1023.09 1023.29 1023.49 1023.69 1023.89 1024.08 1024.27 1024.46 1024.66 1024.88 1025.12 1025.38 1025.67 1025.96 1026.25 1026.50 1026.69
1010.22 1011.00 1011.82 1012.65 1013.47 1014.27 1015.04 1015.77 1016.48 1017.17 1017.83 1018.47 1019.08 1019.66 1020.20 1020.68 1021.11 1021.47 1021.77 1022.01 1022.21 1022.36 1022.49 1022.61 1022.73 1022.85 1022.98 1023.12 1023.26 1023.41 1023.56 1023.71 1023.87 1024.03 1024.22 1024.43 1024.66 1024.93 1025.23 1025.54 1025.85 1026.13 1026.37 1026.53
1010.21 1011.06 1011.95 1012.86 1013.76 1014.63 1015.45 1016.23 1016.95 1017.62 1018.25 1018.84 1019.39 1019.90 1020.38 1020.81 1021.20 1021.54 1021.83 1022.07 1022.28 1022.45 1022.60 1022.73 1022.84 1022.95 1023.05 1023.15 1023.24 1023.34 1023.43 1023.54 1023.66 1023.80 1023.97 1024.17 1024.42 1024.69 1025.00 1025.31 1025.62 1025.89 1026.11 1026.24
1010.16 1011.06 1012.02 1012.99 1013.95 1014.86 1015.72 1016.51 1017.24 1017.90 1018.49 1019.04 1019.55 1020.01 1020.44 1020.84 1021.20 1021.53 1021.82 1022.08 1022.31 1022.50 1022.67 1022.80 1022.92 1023.01 1023.09 1023.16 1023.21 1023.26 1023.32 1023.39 1023.48 1023.59 1023.75 1023.95 1024.19 1024.46 1024.76 1025.06 1025.35 1025.60 1025.79 1025.89
1010.10 1011.05 1012.04 1013.05 1014.05 1014.99 1015.86 1016.66 1017.37 1018.01 1018.59 1019.10 1019.57 1020.01 1020.41 1020.79 1021.15 1021.48 1021.78 1022.06 1022.30 1022.52 1022.70 1022.84 1022.96 1023.04 1023.10 1023.14 1023.17 1023.19 1023.22 1023.26 1023.34 1023.44 1023.59 1023.79 1024.02 1024.29 1024.58 1024.87 1025.14 1025.36 1025.52 1025.59
1010.06 1011.04 1012.06 1013.09 1014.09 1015.04 1015.91 1016.70 1017.40 1018.02 1018.57 1019.07 1019.52 1019.94 1020.34 1020.72 1021.08 1021.42 1021.74 1022.04 1022.30 1022.52 1022.71 1022.86 1022.97 1023.04 1023.09 1023.11 1023.11 1023.12 1023.14 1023.17 1023.24 1023.36 1023.51 1023.71 1023.95 1024.22 1024.50 1024.78 1025.02 1025.22 1025.35 1025.40
1010.06 1011.07 1012.10 1013.14 1014.13 1015.06 1015.92 1016.68 1017.36 1017.97 1018.51 1018.99 1019.44 1019.87 1020.28 1020.67 1021.05 1021.41 1021.75 1022.05 1022.33 1022.55 1022.74 1022.88 1022.97 1023.02 1023.05 1023.05 1023.05 1023.05 1023.07 1023.11 1023.20 1023.33 1023.50 1023.72 1023.97 1024.25 1024.53 1024.79 1025.02 1025.20 1025.31 1025.35
1010.14 1011.16 1012.20 1013.22 1014.20 1015.10 1015.92 1016.65 1017.31 1017.90 1018.43 1018.92 1019.38 1019.82 1020.25 1020.67 1021.08 1021.46 1021.81 1022.13 1022.40 1022.62 1022.79 1022.91 1022.98 1023.01 1023.01 1023.00 1022.98 1022.98 1023.01 1023.07 1023.18 1023.33 1023.54 1023.78 1024.05 1024.34 1024.62 1024.88 1025.09 1025.26 1025.36 1025.39
1010.30 1011.33 1012.36 1013.35 1014.29 1015.15 1015.93 1016.62 1017.25 1017.83 1018.35 1018.85 1019.33 1019.80 1020.27 1020.72 1021.15 1021.56 1021.93 1022.25 1022.51 1022.72 1022.86 1022.95 1022.99 1022.99 1022.97 1022.94 1022.91 1022.92 1022.95 1023.04 1023.17 1023.35 1023.58 1023.85 1024.14 1024.44 1024.72 1024.97 1025.18 1025.34 1025.43 1025.45
1010.53 1011.56 1012.56 1013.51 1014.39 1015.20 1015.92 1016.58 1017.18 1017.73 1018.26 1018.77 1019.28 1019.78 1020.27 1020.76 1021.22 1021.65 1022.03 1022.36 1022.61 1022.80 1022.92 1022.98 1022.99 1022.96 1022.92 1022.87 1022.84 1022.85 1022.89 1023.00 1023.15 1023.36 1023.61 1023.89 1024.20 1024.50 1024.78 1025.03 1025.23 1025.37 1025.46 1025.48
1010.82 1011.82 1012.77 1013.66 1014.48 1015.22 1015.89 1016.49 1017.06 1017.59 1018.12 1018.64 1019.16 1019.69 1020.22 1020.73 1021.22 1021.67 1022.07 1022.39 1022.64 1022.81 1022.92 1022.95 1022.94 1022.90 1022.84 1022.78 1022.76 1022.77 1022.83 1022.94 1023.11 1023.33 1023.60 1023.89 1024.20 1024.49 1024.77 1025.01 1025.20 1025.33 1025.41 1025.44
1011.10 1012.06 1012.95 1013.77 1014.51 1015.18 1015.78 1016.34 1016.86 1017.37 1017.89 1018.41 1018.95 1019.49 1020.05 1020.58 1021.09 1021.55 1021.95 1022.28 1022.53 1022.70 1022.79 1022.82 1022.81 1022.76 1022.70 1022.66 1022.64 1022.67 1022.74 1022.87 1023.05 1023.28 1023.55 1023.84 1024.14 1024.42 1024.68 1024.91 1025.09 1025.22 1025.30 1025.34
1011.34 1012.23 1013.05 1013.79 1014.45 1015.04 1015.58 1016.09 1016.57 1017.06 1017.56 1018.07 1018.61 1019.17 1019.72 1020.26 1020.78 1021.24 1021.65 1021.98 1022.23 1022.40 1022.50 1022.55 1022.55 1022.52 1022.49 1022.47 1022.48 1022.53 1022.63 1022.78 1022.97 1023.21 1023.47 1023.75 1024.04 1024.30 1024.55 1024.76 1024.93 1025.06 1025.15 1025.21
1011.47 1012.28 1013.02 1013.69 1014.27 1014.80 1015.28 1015.74 1016.19 1016.65 1017.13 1017.63 1018.16 1018.71 1019.25 1019.79 1020.29 1020.75 1021.15 1021.48 1021.73 1021.92 1022.05 1022.12 1022.16 1022.17 1022.19 1022.22 1022.27 1022.37 1022.50 1022.67 1022.88 1023.12 1023.38 1023.65 1023.92 1024.17 1024.40 1024.60 1024.76 1024.90 1025.01 1025.09
1011.44 1012.17 1012.84 1013.43 1013.96 1014.44 1014.89 1015.31 1015.74 1016.19 1016.65 1017.14 1017.64 1018.16 1018.68 1019.19 1019.67 1020.10 1020.49 1020.81 1021.08 1021.28 1021.44 1021.56 1021.65 1021.73 1021.80 1021.89 1022.01 1022.15 1022.33 1022.53 1022.77 1023.02 1023.28 1023.54 1023.80 1024.04 1024.26 1024.45 1024.63 1024.77 1024.91 1025.03
Thickness
5657 5667 5672 5679 5687 5696 5692 5685 5668 5653 5645 5636 5633 5628 5622 5617 5612 5609 5605 5602 5600 5597 5594 5592 5590 5588 5587 5585 5583 5581 5578 5574 5571 5568 5565 5561 5559 5556 5553 5551 5548 5545 5542 5539
5659 5671 5674 5674 5682 5686 5678 5672 5660 5650 5634 5632 5626 5620 5613 5608 5604 5599 5595 5591 5588 5584 5581 5579 5577 5575 5573 5571 5570 5568 5565 5562 5559 5556 5553 5550 5547 5544 5541 5539 5536 5533 5530 5526
5660 5672 5672 5659 5669 5669 5662 5660 5655 5640 5628 5622 5615 5610 5605 5601 5596 5590 5585 5580 5576 5572 5569 5567 5565 5563 5561 5560 5558 5556 5554 5551 5549 5546 5543 5540 5537 5533 5530 5527 5524 5521 5518 5514
5668 5665 5643 5655 5674 5668 5655 5646 5643 5633 5622 5614 5606 5599 5594 5590 5585 5580 5574 5569 5565 5561 5558 5556 5555 5553 5552 5550 5548 5546 5544 5541 5538 5535 5532 5529 5526 5522 5519 5517 5514 5511 5507 5503
5665 5652 5647 5656 5666 5664 5649 5630 5630 5621 5612 5604 5597 5589 5580 5578 5575 5570 5564 5559 5555 5551 5549 5547 5546 5545 5543 5542 5540 5537 5534 5531 5528 5525 5522 5519 5515 5512 5510 5507 5505 5502 5498 5494
5667 5650 5636 5646 5663 5666 5650 5620 5622 5617 5607 5601 5597 5585 5571 5567 5565 5560 5555 5551 5547 5544 5542 5539 5538 5537 5535 5533 5531 5528 5525 5522 5519 5516 5512 5509 5506 5504 5502 5499 5497 5495 5490 5486
5665 5650 5642 5655 5662 5659 5629 5617 5620 5615 5607 5601 5595 5585 5571 5563 5557 5552 5547 5544 5540 5538 5535 5533 5532 5530 5528 5525 5522 5520 5517 5513 5510 5507 5504 5501 5498 5495 5493 5492 5490 5487 5484 5480
5664 5644 5631 5653 5653 5637 5626 5627 5620 5611 5603 5594 5585 5574 5565 5557 5550 5545 5541 5537 5535 5532 5529 5527 5526 5524 5520 5517 5514 5512 5508 5504 5501 5499 5497 5494 5490 5488 5487 5486 5484 5482 5478 5474
5654 5640 5643 5648 5643 5639 5634 5623 5615 5606 5597 5588 5577 5568 5560 5553 5547 5542 5538 5534 5531 5528 5525 5522 5520 5517 5513 5510 5508 5504 5499 5496 5493 5490 5488 5486 5484 5482 5481 5480 5479 5477 5474 5469
5652 5644 5645 5644 5640 5635 5628 5619 5612 5603 5593 5584 5573 5564 5557 5551 5545 5540 5535 5532 5528 5525 5520 5516 5514 5511 5507 5504 5500 5496 5492 5489 5486 5484 5481 5479 5477 5476 5475 5472 5470 5470 5467 5464
5650 5645 5642 5638 5634 5629 5622 5615 5607 5598 5589 5580 5571 5563 5556 5549 5543 5538 5534 5530 5525 5521 5516 5512 5508 5505 5502 5498 5494 5490 5487 5484 5482 5480 5477 5474 5471 5466 5465 5460 5459 5459 5458 5456
5656 5652 5645 5633 5632 5626 5616 5608 5601 5592 5583 5576 5569 5561 5555 5548 5542 5537 5531 5526 5521 5517 5512 5508 5504 5500 5496 5492 5489 5485 5482 5480 5479 5477 5474 5472 5468 5463 5457 5455 5452 5451 5449 5447
5669 5663 5651 5640 5632 5623 5614 5606 5598 5589 5581 5573 5566 5560 5553 5545 5539 5534 5528 5523 5518 5513 5509 5504 5500 5495 5491 5487 5484 5481 5479 5477 5476 5475 5474 5472 5469 5465 5458 5452 5449 5448 5447 5446
5669 5659 5644 5636 5628 5621 5612 5603 5595 5586 5578 5571 5564 5557 5550 5543 5537 5531 5526 5521 5516 5511 5506 5501 5496 5491 5487 5483 5480 5478 5476 5474 5473 5473 5472 5471 5468 5466 5463 5459 5454 5451 5447 5446
5664 5656 5645 5636 5627 5617 5609 5600 5590 5582 5574 5567 5561 5554 5547 5541 5535 5529 5524 5519 5513 5508 5503 5498 5492 5487 5483 5480 5476 5474 5473 5472 5471 5471 5470 5468 5466 5465 5463 5459 5457 5454 5451 5448
5662 5654 5643 5633 5623 5614 5606 5597 5589 5580 5573 5565 5559 5552 5546 5540 5534 5528 5522 5517 5510 5505 5500 5495 5489 5485 5481 5477 5474 5472 5469 5466 5466 5468 5468 5467 5465 5463 5461 5458 5456 5454 5452 5450
5658 5647 5639 5630 5622 5614 5606 5598 5590 5581 5573 5565 5558 5552 5545 5539 5532 5526 5520 5515 5509 5503 5497 5492 5487 5484 5480 5476 5473 5473 5471 5468 5464 5465 5466 5465 5463 5461 5459 5456 5454 5453 5451 5447
5663 5653 5644 5635 5625 5616 5608 5600 5591 5582 5574 5567 5559 5552 5545 5538 5532 5525 5520 5514 5508 5502 5496 5491 5485 5482 5479 5476 5473 5474 5474 5472 5470 5468 5465 5463 5461 5460 5457 5455 5453 5451 5450 5449
5663 5654 5645 5636 5628 5619 5609 5600 5591 5583 5575 5568 5560 5552 5546 5540 5533 5527 5521 5515 5509 5502 5496 5489 5482 5480 5478 5475 5471 5474 5475 5474 5471 5467 5465 5458 5460 5458 5456 5454 5452 5451 5450 5449
5662 5654 5645 5636 5628 5619 5610 5601 5592 5583 5576 5569 5561 5553 5547 5541 5535 5529 5522 5518 5513 5507 5498 5492 5486 5485 5482 5479 5474 5477 5478 5476 5472 5468 5465 5463 5460 5458 5456 5454 5452 5451 5450 5450
5660 5653 5644 5636 5628 5619 5611 5602 5593 5584 5576 5570 5562 5555 5549 5543 5537 5531 5525 5520 5513 5508 5501 5493 5491 5490 5486 5482 5478 5481 5481 5477 5474 5470 5467 5464 5461 5459 5457 5455 5454 5453 5452 5452
5659 5652 5644 5636 5628 5619 5610 5602 5594 5585 5577 5571 5564 5558 5551 5544 5540 5534 5529 5525 5516 5508 5505 5502 5498 5491 5487 5483 5486 5488 5485 5480 5476 5472 5469 5466 5464 5461 5459 5457 5456 5455 5454 5454
5658 5651 5644 5635 5627 5618 5610 5602 5594 5586 5579 5572 5566 5560 5553 5548 5545 5539 5532 5525 5520 5511 5509 5506 5498 5493 5488 5488 5491 5492 5488 5482 5479 5476 5472 5470 5467 5465 5462 5460 5459 5458 5457 5456
5655 5648 5642 5634 5626 5617 5608 5602 5595 5587 5580 5575 5569 5563 5557 5552 5548 5546 5538 5528 5522 5514 5513 5504 5500 5496 5492 5492 5495 5496 5492 5487 5483 5481 5478 5475 5472 5469 5467 5464 5463 5461 5459 5458
5652 5646 5639 5632 5623 5616 5609 5602 5595 5588 5582 5577 5571 5565 5561 5557 5554 5548 5540 5532 5524 5518 5515 5507 5503 5500 5497 5499 5502 5500 5496 5491 5488 5485 5482 5478 5476 5474 5471 5468 5466 5464 5462 5460
5648 5643 5637 5630 5625 5618 5612 5604 5597 5590 5585 5579 5574 5568 5564 5561 5557 5550 5542 5536 5530 5522 5521 5515 5510 5505 5505 5507 5507 5502 5497 5491 5489 5486 5485 5482 5480 5477 5474 5471 5468 5467 5465 5462
5644 5640 5633 5628 5623 5619 5614 5607 5600 5594 5589 5584 5578 5572 5568 5564 5559 5553 5547 5541 5536 5530 5528 5526 5522 5518 5516 5515 5512 5507 5502 5499 5495 5491 5488 5485 5483 5480 5477 5474 5472 5470 5467 5466